Location: Leuk
(46.3174°N, 7.6341°E)
Time: 07:28:03
(UTC+00:00)

Cosmos 2154 Rocket - Pass Details

Date: 09 March 2021
Orbit: 966 x 996 km, 82.9° (Epoch: 18 April)

Event Time Altitude Azimuth Distance (km) Brightness Sun altitude
Rises 04:57:07 0° 349° (N) 3,676 7.0 -10.6°
Reaches altitude 10° 04:59:38 10° 348° (NNW) 2,727 6.3 -10.2°
Maximum altitude 05:05:51 74° 265° (W) 1,016 4.0 -9.1°
Drops below altitude 10° 05:12:05 10° 181° (S) 2,728 6.3 -8.0°
Sets 05:14:36 0° 180° (S) 3,676 7.0 -7.6°
